GFSWCAN_850_dewp_078.txt.gz
Dewpoint
-2 -1 -2 -3 1 2 3 4 5 6 7 1 -2 -4 -8 -9 -9 -8 -8 -7 -6 -4 -4 -4 -4 -5 -5 -5 -3 -3 1 2 2 2 3 3 1 -0 -2 -2 0 1 3 2 2 4 4 -3 -3 -1 -0 -2 -2 -1
-3 -2 -3 -1 -0 2 5 5 5 6 4 -0 -2 -7 -8 -9 -9 -8 -8 -7 -8 -5 -3 -6 -6 -5 -5 -4 -4 -1 -0 0 1 3 2 2 1 -1 -1 0 -1 1 -0 2 -0 1 -3 -3 -2 -3 -2 -1 -0 -0
-2 -3 -6 -1 1 2 3 4 5 6 2 -1 -4 -8 -8 -8 -8 -9 -9 -7 -9 -5 -4 -4 -4 -6 -7 -5 -3 -2 -1 -1 -1 0 1 1 1 1 0 -1 -1 -2 -2 -0 -1 -3 -3 -3 -3 -1 -1 -0 -0 -0
-3 -5 -6 -1 1 3 2 3 5 4 2 -2 -6 -8 -8 -9 -9 -11 -10 -10 -7 -4 -3 -3 -3 -4 -6 -7 -6 -2 -2 -1 -2 -1 -0 1 1 1 1 1 1 -1 -2 -1 -1 -2 -2 -1 -1 -1 -2 -2 -3 -1
-3 -8 -3 -1 1 2 2 3 4 2 -1 -2 -7 -8 -8 -9 -10 -10 -10 -7 -5 -3 -2 -3 -3 -4 -5 -7 -5 -3 -3 -2 -2 -3 -2 -0 -1 -1 -1 -1 0 -2 -1 -0 0 -3 -2 -2 -2 -3 -2 -2 -1 0
-5 -8 -3 -1 2 1 2 2 3 2 -2 -2 -7 -9 -9 -8 -10 -10 -9 -8 -6 -6 -3 -2 -2 -3 -3 -5 -4 -3 -4 -3 -2 -3 -3 -4 -4 -3 -1 -1 -5 -5 -3 -4 -5 -4 -2 -2 -1 -1 -1 -0 -0 0
-7 -4 -0 1 2 1 2 2 2 -0 -4 -4 -7 -8 -8 -8 -9 -8 -5 -7 -5 -4 -4 -1 -2 -3 -3 -3 -3 -3 -3 -3 -3 -3 -3 -3 -3 -4 -2 -1 -5 -6 -6 -3 -1 -1 -1 -1 -0 -0 1 1 -1 -1
-8 -3 1 2 3 2 2 3 1 -1 -5 -5 -6 -8 -8 -8 -8 -9 -8 -5 -6 -6 -3 -2 -2 -2 -2 -2 -2 -2 -3 -3 -3 -3 -3 -3 -3 -3 -2 -4 -5 -6 -3 -1 -1 -1 -0 -0 0 -0 1 0 1 1
-8 -1 1 2 2 2 2 1 0 -1 -4 -6 -7 -6 -8 -8 -9 -7 -6 -6 -6 -3 -1 -0 -1 -1 -2 -0 -1 -2 -3 -2 -3 -3 -3 -4 -3 -2 -3 -5 -8 -4 -2 -1 -1 -1 -1 -1 -1 -1 -0 0 1 1
-8 -0 1 1 2 1 1 1 -0 -2 -4 -6 -6 -8 -7 -7 -7 -6 -6 -6 -6 -4 -2 -1 -2 -2 -2 -3 -1 -3 -2 -2 -2 -2 -3 -3 -2 -3 -4 -6 -4 -1 -1 -2 -1 -1 -1 -1 -0 -1 -1 -1 -1 -0
-5 -0 1 2 1 1 1 0 -1 -3 -4 -6 -6 -3 -4 -5 -5 -5 -3 -1 -2 -1 -2 -2 -2 -2 -2 -1 -1 -2 -2 -1 -1 -0 -2 -2 -2 -2 -3 -2 -1 -2 -2 -2 -1 -1 -1 -1 -1 -2 -2 -1 -1 -1
-3 -0 1 2 1 1 -0 0 -1 -3 -5 -8 -7 -4 -4 -5 -4 -2 -1 -2 -1 -0 -2 -2 -2 -2 -1 -2 -2 -2 0 -1 -1 -2 -1 -2 -2 -2 -2 -2 -2 -1 -1 -1 -1 -1 -1 -1 -2 -2 -2 -2 -2 -3
-1 1 1 1 1 1 0 -0 -2 -6 -8 -8 -5 -5 -4 -4 -2 -2 -1 -0 -1 -1 -2 -2 -2 -2 -1 -1 -2 -1 -0 -1 -1 -0 -1 -2 -1 -1 -2 -1 -1 -1 -1 -1 -1 -1 -2 -1 -2 -2 -2 -2 -3 -3
0 1 2 1 1 0 -0 -2 -5 -6 -7 -7 -6 -6 -3 -4 -3 -0 0 -1 -1 -2 -2 -2 -2 -2 -2 -2 -2 -1 -2 -0 -1 -2 -2 -2 -1 -1 -1 -2 -0 -1 -1 -2 -3 -3 -3 -2 -2 -2 -2 -3 -3 -3
1 2 1 1 0 -0 -1 -2 -4 -6 -9 -8 -4 -5 -4 -4 -3 -2 -2 -1 -1 -1 -3 -3 -3 -3 -2 -2 -2 -2 -0 -1 -2 -2 -2 -0 -1 -2 -2 -3 -4 -3 -3 -4 -5 -5 -6 -7 -4 -2 -2 -2 -3 -4
1 1 0 -0 -0 -0 -1 -2 -4 -5 -7 -7 -6 -5 -4 -4 -3 -2 -1 -1 -2 -3 -4 -4 -3 -3 -3 -3 -3 -4 -3 -3 -3 -2 0 -1 -2 -2 -3 -6 -6 -4 -4 -5 -5 -8 -11 -11 -5 -2 -2 -2 -2 -3
1 0 -0 -1 -0 -0 -1 -2 -4 -3 -4 -4 -4 -4 -3 -3 -2 -2 -2 -2 -4 -6 -2 -2 -4 -4 -3 -4 -3 -4 -4 -3 -1 -3 -2 -4 -2 -3 -5 -7 -6 -5 -5 -8 -10 -12 -11 -11 -10 -5 -3 -2 -2 -3
0 -0 -1 -1 -0 -2 -2 -2 -3 -4 -4 -3 -3 -6 -4 -3 -2 -2 -3 -3 -6 -6 -5 -3 -4 -4 -4 -4 -4 -4 -3 -3 -4 -7 -9 -9 -8 -8 -6 -7 -7 -6 -7 -9 -12 -11 -9 -9 -10 -8 -6 -3 -4 -4
-0 -1 -1 -0 -1 -2 -2 -3 -3 -4 -4 -6 -6 -5 -4 -3 -3 -4 -3 -4 -7 -9 -8 -5 -5 -5 -3 -4 -3 -3 -4 -5 -6 -7 -8 -9 -8 -9 -9 -7 -6 -6 -7 -8 -10 -13 -10 -12 -12 -6 -4 -4 -4 -4
-1 -1 -0 -1 -2 -5 -2 -2 -3 -4 -4 -5 -6 -6 -6 -5 -4 -3 -4 -6 -8 -9 -6 -5 -4 -5 -6 -8 -9 -7 -8 -9 -9 -8 -9 -9 -9 -8 -9 -9 -9 -8 -7 -7 -8 -15 -13 -11 -11 -9 -7 -7 -7 -7
-1 -1 -1 -1 -1 -1 -3 -3 -4 -5 -5 -6 -5 -5 -5 -5 -4 -4 -4 -5 -6 -4 -4 -7 -7 -7 -8 -9 -8 -8 -8 -8 -8 -8 -8 -9 -9 -8 -8 -8 -9 -9 -9 -8 -8 -16 -19 -16 -15 -15 -13 -12 -11 -11
-2 -1 -1 -1 -1 -3 -4 -4 -4 -5 -6 -6 -6 -5 -5 -5 -5 -5 -4 -4 -3 -4 -6 -6 -7 -7 -7 -7 -7 -8 -9 -10 -11 -12 -12 -12 -13 -13 -13 -11 -9 -10 -10 -8 -9 -18 -20 -19 -17 -18 -19 -20 -19 -18
-1 -1 -1 -2 -3 -4 -5 -5 -5 -5 -4 -6 -6 -6 -7 -7 -7 -6 -5 -5 -5 -5 -6 -7 -7 -7 -7 -7 -8 -10 -14 -16 -18 -18 -17 -16 -14 -13 -13 -13 -11 -11 -11 -10 -9 -16 -21 -21 -20 -19 -19 -18 -17 -17
-1 -1 -3 -4 -5 -6 -6 -6 -6 -6 -6 -6 -6 -7 -8 -9 -8 -7 -6 -6 -7 -7 -8 -9 -8 -8 -9 -12 -17 -19 -20 -19 -20 -21 -21 -21 -20 -16 -13 -13 -13 -12 -11 -10 -10 -14 -20 -20 -19 -18 -18 -17 -15 -15
-2 -4 -4 -6 -6 -5 -5 -5 -6 -5 -6 -7 -7 -8 -10 -10 -8 -8 -9 -8 -8 -9 -10 -11 -10 -11 -19 -19 -18 -17 -17 -17 -17 -18 -21 -21 -21 -21 -18 -15 -13 -11 -9 -9 -10 -15 -19 -18 -17 -17 -16 -15 -14 -14
-6 -7 -5 -5 -6 -4 -4 -4 -4 -6 -7 -7 -9 -11 -11 -9 -9 -8 -8 -10 -10 -11 -12 -16 -19 -18 -16 -15 -14 -14 -14 -16 -17 -19 -20 -19 -18 -18 -18 -18 -16 -15 -13 -10 -10 -12 -15 -17 -17 -16 -15 -14 -14 -14
-5 -6 -7 -7 -7 -7 -7 -7 -7 -7 -7 -7 -10 -10 -9 -8 -9 -9 -10 -10 -11 -12 -17 -17 -16 -14 -14 -13 -12 -12 -13 -17 -18 -18 -17 -16 -15 -15 -15 -15 -15 -14 -14 -14 -11 -11 -14 -17 -16 -16 -15 -14 -14 -14
-6 -5 -6 -7 -7 -7 -7 -7 -7 -7 -7 -9 -10 -9 -9 -9 -9 -10 -10 -11 -14 -16 -16 -16 -14 -14 -13 -11 -11 -14 -16 -16 -15 -15 -14 -14 -14 -14 -13 -13 -13 -13 -14 -14 -14 -14 -13 -14 -14 -14 -14 -14 -14 -14
-7 -6 -6 -7 -7 -8 -8 -7 -7 -9 -9 -9 -10 -10 -10 -10 -10 -13 -13 -12 -13 -14 -14 -14 -12 -10 -9 -13 -15 -15 -14 -13 -13 -13 -14 -14 -13 -13 -13 -13 -12 -12 -12 -12 -12 -12 -13 -13 -13 -13 -13 -13 -13 -13
-7 -7 -7 -8 -7 -7 -9 -9 -9 -9 -9 -9 -9 -9 -10 -10 -11 -12 -11 -10 -10 -9 -9 -8 -9 -11 -14 -14 -13 -12 -12 -12 -13 -13 -14 -14 -14 -13 -13 -13 -13 -12 -12 -12 -12 -11 -11 -11 -11 -11 -11 -10 -10 -10
-8 -7 -8 -8 -10 -10 -9 -9 -9 -9 -9 -9 -9 -9 -9 -9 -9 -9 -9 -9 -9 -9 -11 -13 -14 -14 -12 -12 -12 -12 -12 -14 -15 -15 -15 -14 -14 -14 -14 -14 -14 -14 -14 -13 -12 -12 -12 -12 -12 -12 -12 -13 -13 -13
-9 -9 -9 -11 -11 -9 -9 -9 -8 -8 -8 -8 -9 -8 -9 -9 -9 -10 -11 -14 -15 -15 -15 -14 -13 -12 -12 -11 -12 -15 -16 -16 -15 -15 -15 -15 -15 -14 -14 -14 -14 -14 -14 -14 -14 -14 -14 -13 -13 -13 -13 -13 -13 -13
-9 -10 -10 -10 -11 -11 -11 -12 -13 -13 -13 -12 -12 -12 -12 -12 -13 -14 -15 -15 -14 -13 -12 -11 -11 -11 -12 -15 -16 -15 -14 -14 -14 -14 -14 -14 -14 -14 -14 -14 -14 -14 -14 -14 -14 -14 -14 -14 -13 -13 -13 -13 -13 -13

GFSWCAN_850_dewp_084.txt.gz
Dewpoint
-4 -3 -2 -2 -3 -4 -7 -3 2 1 4 3 4 3 2 -0 -3 -4 -6 -5 -7 -4 -3 -4 -4 -4 -3 -1 -1 -1 -0 0 0 0 1 1 1 0 -0 -0 1 2 1 2 2 4 2 -3 -3 -2 -3 -0 -0 -1
-3 -2 -3 -2 -5 -5 -7 2 3 3 4 4 3 3 1 -2 -4 -5 -6 -5 -7 -5 -3 -4 -4 -4 -3 -3 -0 -0 -1 -0 -0 -1 -1 0 1 -1 -2 2 -2 0 -1 0 0 1 -3 -2 -2 -2 -2 -1 -0 -1
-3 -3 -3 -6 -6 -11 -0 2 3 3 3 3 3 1 -2 -4 -4 -6 -5 -6 -7 -5 -5 -5 -5 -4 -3 -3 -1 -1 -0 -0 0 -0 -1 -0 1 -1 -0 -1 -0 -2 -2 -1 -1 -2 -2 -1 -1 -2 -2 -2 -2 -2
-4 -3 -5 -5 -9 -8 1 2 4 3 3 3 -1 -3 -3 -5 -6 -7 -6 -7 -8 -8 -4 -3 -5 -5 -4 -4 -3 -3 -2 -1 -0 -0 -1 -2 1 -0 0 -1 -1 -2 -2 -1 -1 -1 -2 -2 -2 -3 -3 -2 -2 -2
-4 -4 -5 -6 -13 -3 2 3 4 3 3 2 -2 -4 -4 -5 -7 -6 -5 -8 -9 -7 -3 -3 -4 -4 -4 -4 -3 -2 -1 -1 -2 -3 -2 -1 -1 -1 -2 -2 -1 -2 -1 -1 -0 -2 -1 -2 -2 -2 -1 -1 -1 -0
-5 -5 -7 -9 -14 1 2 2 3 3 3 -3 -6 -4 -5 -7 -7 -6 -8 -6 -5 -9 -4 -3 -3 -3 -4 -5 -3 -3 -3 -3 -3 -3 -4 -4 -4 -2 -2 -1 -3 -2 -2 -2 -3 -3 -3 -2 -1 -1 -2 -1 -0 0
-6 -6 -11 -12 -10 1 2 2 3 2 1 -4 -6 -6 -5 -6 -6 -6 -6 -5 -7 -4 -5 -3 -4 -3 -3 -4 -5 -5 -5 -4 -5 -4 -3 -3 -4 -4 -3 -2 -4 -5 -5 -5 -4 -2 -1 -1 -1 -1 -1 -0 -0 0
-8 -8 -12 -14 -8 1 1 2 2 2 -0 -1 -4 -5 -6 -4 -5 -4 -3 -5 -3 -3 -3 -3 -2 -3 -3 -2 -3 -3 -4 -4 -4 -3 -4 -4 -3 -4 -3 -4 -5 -5 -4 -3 -1 -1 -1 -1 -1 -1 -1 -1 -1 -1
-10 -10 -12 -16 -4 1 1 2 2 2 -0 -2 -3 -4 -7 -6 -7 -4 -4 -5 -3 -4 -3 -4 -3 -2 -2 -2 -3 -3 -3 -3 -4 -3 -3 -4 -4 -3 -5 -6 -5 -5 -5 -2 -1 -1 -1 -1 -1 -1 -2 -2 -2 -1
-12 -10 -10 -17 -10 0 1 2 2 2 -4 -3 -3 -3 -3 -7 -6 -5 -6 -6 -5 -3 -1 -3 -3 -3 -2 -3 -3 -3 -2 -2 -3 -3 -3 -3 -3 -4 -5 -5 -5 -5 -5 -1 -1 -2 -1 -1 -1 -1 -2 -2 -3 -1
-13 -10 -13 -16 -4 1 2 2 2 -0 -4 -4 -5 -5 -4 -6 -6 -6 -5 -4 -3 -3 -2 -2 -4 -2 -3 -4 -3 -4 -2 -3 -5 -4 -3 -4 -3 -4 -5 -4 -7 -6 -5 -2 -2 -2 -1 -1 -2 -2 -2 -2 -2 -3
-12 -10 -11 -1 1 3 2 2 1 -1 -5 -6 -7 -4 -6 -3 -3 -3 -4 -4 -3 -3 -2 -3 -3 -2 -2 -3 -3 -2 -4 -4 -4 -3 -2 -3 -4 -5 -4 -4 -4 -4 -2 -2 -2 -1 -1 -2 -2 -2 -2 -2 -3 -3
-9 -10 -1 1 2 3 2 2 1 -4 -7 -8 -6 -3 -2 -3 -3 -2 -4 -4 -2 -2 -2 -2 -3 -2 -3 -3 -4 -4 -4 -4 -3 -2 -2 -4 -4 -3 -3 -3 -2 -2 -2 -2 -1 -1 -2 -3 -4 -6 -8 -8 -3 -2
-6 -9 -0 0 2 2 1 1 -1 -5 -6 -7 -5 -4 -4 -3 -5 -3 -2 -2 -3 -2 -2 -3 -2 -2 -3 -4 -4 -6 -4 -2 -2 -3 -4 -4 -4 -2 -2 -2 -2 -2 -2 -2 -4 -4 -5 -6 -6 -7 -8 -9 -9 -4
-4 -10 -1 0 1 1 1 -0 -3 -5 -6 -8 -8 -4 -5 -6 -3 -1 -1 -2 -2 -2 -4 -3 -3 -3 -5 -3 -4 -3 -2 -2 -3 -4 -5 -3 -2 -2 -2 -2 -2 -5 -7 -7 -6 -6 -7 -6 -8 -11 -11 -9 -8 -6
-7 -6 -0 -0 1 1 0 -1 -2 -6 -9 -7 -5 -6 -4 -3 -2 -1 -2 -1 -2 -4 -6 -6 -5 -6 -3 -4 -4 -5 -4 -4 -6 -6 -2 -1 -2 -2 -2 -2 -3 -6 -6 -6 -6 -6 -6 -8 -10 -12 -11 -9 -8 -6
-6 -2 0 -0 0 -0 -0 -1 -1 -4 -5 -5 -6 -5 -5 -4 -2 -1 -1 -2 -4 -7 -4 -5 -7 -7 -5 -6 -5 -5 -5 -6 -6 -1 -1 -2 -2 -3 -3 -2 -3 -5 -6 -7 -6 -6 -6 -8 -9 -12 -12 -10 -9 -7
-5 -2 -0 -0 -1 -2 -1 -1 -1 -3 -5 -4 -6 -4 -3 -2 -1 -1 -2 -3 -5 -6 -6 -5 -4 -5 -4 -6 -5 -5 -4 -2 -2 -2 -8 -8 -8 -9 -9 -9 -9 -8 -7 -6 -5 -5 -6 -6 -7 -9 -13 -11 -10 -6
-4 -1 -1 -0 0 -1 -1 -1 -3 -5 -6 -5 -4 -3 -3 -2 -2 -2 -2 -4 -7 -7 -6 -6 -7 -6 -5 -6 -6 -5 -4 -3 -4 -7 -9 -9 -9 -9 -9 -10 -10 -9 -8 -8 -8 -7 -8 -7 -7 -7 -13 -12 -10 -7
-3 -1 -1 -0 -0 -1 -1 -3 -6 -6 -6 -5 -4 -4 -3 -3 -3 -3 -4 -6 -8 -10 -9 -8 -8 -9 -7 -6 -6 -7 -5 -4 -5 -8 -9 -9 -9 -9 -10 -11 -11 -10 -9 -9 -8 -8 -9 -9 -9 -8 -14 -13 -11 -11
-1 -2 -1 -1 -1 -1 -3 -4 -5 -6 -5 -5 -4 -4 -4 -4 -4 -4 -5 -7 -9 -8 -6 -9 -9 -7 -8 -8 -7 -8 -9 -9 -9 -9 -9 -10 -12 -14 -15 -15 -15 -15 -14 -13 -12 -10 -9 -9 -9 -8 -16 -16 -14 -14
-2 -2 -2 -1 -2 -3 -4 -5 -6 -6 -6 -5 -5 -5 -5 -5 -4 -4 -5 -6 -6 -7 -8 -8 -8 -8 -9 -9 -9 -9 -8 -8 -8 -9 -12 -16 -19 -20 -19 -18 -16 -15 -14 -13 -13 -12 -12 -11 -8 -10 -17 -17 -16 -19
-2 -2 -1 -1 -3 -4 -5 -5 -5 -5 -5 -7 -6 -7 -7 -7 -6 -5 -5 -5 -6 -6 -6 -7 -8 -7 -8 -8 -8 -7 -8 -9 -14 -18 -20 -20 -21 -22 -21 -21 -20 -20 -20 -17 -14 -12 -12 -11 -10 -9 -14 -19 -18 -19
-1 -1 -2 -3 -4 -6 -5 -6 -5 -5 -6 -6 -8 -8 -8 -8 -6 -7 -6 -7 -7 -7 -6 -5 -5 -6 -7 -7 -7 -8 -14 -19 -19 -17 -16 -16 -18 -19 -20 -20 -19 -19 -19 -19 -18 -17 -11 -9 -9 -9 -10 -18 -19 -18
-2 -4 -3 -5 -5 -6 -6 -6 -6 -7 -6 -7 -7 -8 -9 -8 -6 -7 -7 -8 -8 -7 -7 -6 -6 -6 -6 -8 -12 -19 -18 -16 -14 -13 -13 -14 -16 -18 -18 -17 -16 -16 -16 -16 -15 -15 -15 -15 -13 -10 -9 -12 -18 -18
-5 -7 -5 -5 -5 -6 -6 -5 -6 -6 -6 -7 -8 -10 -9 -7 -6 -6 -7 -9 -10 -10 -9 -9 -9 -11 -15 -18 -16 -14 -12 -11 -10 -11 -13 -15 -16 -17 -17 -16 -15 -14 -14 -13 -13 -13 -13 -13 -13 -14 -13 -12 -13 -14
-6 -7 -7 -6 -6 -6 -6 -6 -6 -5 -5 -6 -9 -9 -7 -5 -5 -7 -9 -10 -11 -11 -11 -10 -13 -18 -16 -13 -13 -11 -10 -10 -12 -14 -16 -16 -15 -14 -14 -14 -14 -14 -13 -13 -12 -13 -13 -13 -13 -13 -13 -13 -13 -13
-6 -6 -7 -7 -6 -6 -6 -5 -4 -4 -6 -8 -8 -6 -5 -5 -6 -9 -10 -11 -13 -13 -15 -17 -14 -13 -14 -14 -12 -10 -10 -13 -14 -15 -14 -14 -14 -14 -14 -14 -14 -13 -14 -14 -13 -13 -13 -13 -13 -12 -12 -12 -12 -12
-7 -6 -6 -6 -7 -8 -8 -6 -7 -7 -8 -7 -7 -8 -9 -9 -11 -11 -11 -12 -14 -17 -17 -15 -14 -14 -14 -10 -9 -10 -12 -14 -14 -14 -14 -15 -16 -16 -16 -15 -15 -15 -15 -15 -15 -15 -15 -14 -14 -14 -13 -13 -12 -11
-6 -6 -7 -9 -8 -9 -11 -10 -9 -8 -8 -9 -9 -10 -11 -11 -12 -11 -13 -14 -15 -16 -16 -15 -14 -10 -9 -9 -12 -14 -13 -14 -16 -17 -17 -17 -16 -16 -14 -14 -14 -14 -14 -14 -14 -14 -14 -14 -14 -14 -14 -14 -13 -13
-7 -7 -9 -10 -11 -12 -11 -9 -8 -8 -9 -9 -10 -10 -10 -11 -12 -12 -12 -13 -12 -12 -10 -9 -9 -11 -15 -13 -13 -14 -15 -15 -15 -16 -16 -14 -14 -14 -14 -14 -14 -14 -14 -14 -14 -14 -14 -14 -14 -14 -14 -14 -14 -14
-9 -9 -8 -9 -11 -10 -9 -8 -9 -9 -9 -9 -9 -9 -9 -9 -9 -9 -9 -9 -9 -10 -13 -15 -13 -12 -12 -12 -12 -12 -12 -14 -15 -15 -14 -14 -14 -14 -14 -14 -14 -14 -14 -14 -15 -15 -15 -15 -14 -14 -14 -14 -14 -14
-8 -9 -9 -9 -10 -10 -10 -12 -13 -13 -13 -13 -13 -12 -12 -12 -12 -13 -14 -15 -16 -14 -12 -12 -11 -11 -10 -11 -11 -12 -14 -14 -14 -14 -14 -14 -14 -14 -14 -14 -15 -15 -15 -15 -15 -15 -15 -15 -15 -15 -15 -15 -15 -15

GFSWCAN_850_dewp_090.txt.gz
Dewpoint
-5 -1 -2 -7 -11 -11 -13 -2 2 2 3 3 3 3 3 3 2 0 -4 -6 -4 -3 -3 -3 -3 -1 -1 -0 0 0 0 0 -1 0 0 0 -0 -0 0 -0 1 2 2 2 3 2 2 -3 -3 -3 -4 -1 -0 -1
-6 -1 -3 -10 -11 -12 -9 3 3 2 2 3 3 3 3 2 2 -3 -5 -4 -2 -2 -3 -2 -2 -2 -1 -1 0 0 -1 -1 -1 -1 -2 -1 1 -2 -2 1 -2 1 -0 1 0 0 -3 -2 -2 -2 -1 -1 -0 -1
-4 -2 -5 -12 -11 -13 -4 3 4 4 2 3 3 3 3 2 -0 -4 -5 -5 -4 -3 -4 -3 -3 -2 -1 -0 -0 -1 -1 -0 -1 -2 -2 -1 -0 -2 -1 -1 -1 -2 -3 -1 -1 -2 -2 -1 -1 -1 -1 -1 -2 -2
-4 -2 -6 -12 -11 -14 -1 2 4 3 3 3 3 3 3 2 -2 -5 -6 -6 -5 -5 -4 -4 -3 -3 -2 -1 -1 -1 -2 -1 -1 -1 -2 -2 0 -1 -2 -3 -2 -2 -2 -2 -2 -2 -2 -2 -2 -2 -2 -2 -2 -2
-4 -2 -4 -13 -12 -12 1 3 3 3 3 3 3 3 3 2 0 -3 -6 -7 -8 -9 -4 -4 -4 -3 -2 -3 -3 -2 -1 -1 -1 -2 -2 -1 -1 -2 -3 -3 -2 -2 -2 -1 -1 -3 -2 -2 -2 -2 -2 -2 -2 -2
-4 -2 -3 -13 -12 -6 1 3 2 3 3 3 2 2 2 1 -1 -3 -5 -7 -8 -7 -7 -4 -4 -4 -3 -2 -1 -1 -1 -2 -3 -3 -4 -3 -3 -2 -2 -1 -4 -2 -2 -3 -3 -2 -2 -2 -2 -2 -2 -2 -3 -2
-4 -2 -1 -12 -13 -3 2 3 3 2 3 2 1 -1 -3 -2 -3 -4 -5 -5 -8 -8 -8 -4 -4 -4 -4 -4 -3 -4 -4 -5 -5 -4 -4 -4 -4 -3 -3 -2 -6 -3 -2 -2 -2 -2 -2 -2 -2 -2 -2 -2 -2 -2
-3 -2 -1 -9 -13 -0 2 2 2 2 2 -1 -2 -4 -4 -3 -4 -3 -3 -5 -4 -5 -6 -5 -4 -4 -4 -5 -5 -6 -6 -6 -5 -4 -4 -4 -4 -5 -4 -5 -5 -4 -3 -3 -3 -3 -4 -3 -2 -2 -2 -2 -2 -2
-4 -2 -2 -2 -13 -1 2 2 2 2 -0 -3 -4 -4 -4 -5 -4 -4 -3 -3 -4 -5 -4 -5 -4 -4 -3 -3 -3 -4 -4 -4 -4 -4 -4 -5 -5 -3 -6 -7 -6 -4 -4 -4 -3 -2 -2 -2 -2 -1 -1 -1 -2 -2
-4 -2 -1 -2 -10 -4 1 1 1 1 -1 -4 -4 -4 -6 -6 -4 -4 -3 -3 -4 -2 -4 -3 -4 -2 -3 -3 -3 -4 -3 -4 -5 -4 -3 -3 -3 -6 -7 -7 -8 -5 -5 -5 -2 -1 -1 -2 -2 -1 -2 -2 -2 -2
-3 -2 -1 -1 -6 -10 0 1 1 -0 -3 -4 -5 -4 -5 -3 -4 -5 -4 -4 -3 -2 -3 -4 -3 -2 -3 -4 -3 -4 -5 -6 -5 -4 -4 -4 -4 -5 -5 -6 -7 -5 -5 -5 -3 -2 -2 -2 -2 -2 -2 -4 -5 -6
-2 -2 -1 -1 -3 -7 -4 1 0 -1 -2 -3 -3 -5 -4 -4 -4 -6 -5 -4 -3 -3 -3 -4 -3 -4 -3 -4 -3 -3 -5 -6 -4 -4 -4 -3 -5 -6 -4 -6 -6 -6 -5 -5 -4 -2 -2 -2 -2 -3 -4 -6 -7 -8
-2 -2 -1 -1 -1 -4 -5 0 0 -1 -0 -1 -3 -4 -3 -4 -6 -6 -4 -5 -5 -3 -3 -3 -2 -2 -3 -4 -3 -5 -6 -5 -4 -3 -3 -5 -6 -5 -4 -5 -5 -5 -5 -6 -4 -3 -2 -2 -3 -4 -6 -7 -7 -9
-2 -2 -2 -1 -1 -3 -4 -3 0 0 -1 -1 -1 -2 -4 -6 -5 -5 -4 -4 -5 -3 -3 -2 -3 -3 -4 -4 -5 -6 -5 -3 -3 -3 -5 -7 -6 -4 -4 -5 -6 -6 -6 -3 -2 -2 -3 -4 -5 -6 -7 -8 -8 -10
-2 -2 -1 -0 -0 -3 -5 -3 0 0 -1 -1 -2 -3 -4 -5 -4 -4 -3 -3 -3 -3 -3 -3 -4 -4 -5 -5 -5 -3 -2 -3 -4 -5 -6 -7 -6 -4 -4 -5 -5 -3 -2 -3 -3 -6 -7 -7 -6 -7 -7 -7 -8 -8
-2 -1 -0 -0 -1 -5 -5 -3 -1 -1 -1 -2 -6 -7 -4 -5 -3 -2 -2 -2 -3 -4 -6 -6 -6 -6 -3 -4 -4 -5 -6 -6 -6 -6 -6 -4 -5 -3 -4 -4 -3 -2 -2 -5 -6 -6 -7 -7 -6 -6 -6 -7 -6 -7
-1 -0 -1 -4 -7 -8 -4 -1 -2 -1 -1 -2 -6 -6 -6 -4 -4 -2 -2 -3 -3 -5 -4 -7 -10 -10 -5 -7 -5 -6 -6 -6 -8 -7 -2 -4 -4 -3 -3 -3 -2 -3 -3 -3 -5 -7 -7 -7 -6 -6 -6 -7 -6 -7
-1 -0 -3 -9 -3 0 -1 -1 -1 -1 -3 -4 -6 -5 -5 -3 -2 -2 -2 -3 -4 -6 -8 -9 -6 -5 -5 -8 -6 -6 -6 -6 -6 -1 -2 -2 -2 -2 -3 -3 -5 -8 -10 -10 -11 -10 -9 -8 -8 -8 -7 -8 -9 -8
-1 -1 -5 -1 -0 -1 -1 -2 -1 -4 -5 -5 -4 -4 -3 -2 -2 -2 -3 -3 -5 -7 -9 -7 -9 -7 -6 -7 -7 -7 -6 -4 -2 -1 -2 -3 -4 -6 -9 -10 -10 -10 -11 -11 -12 -12 -12 -11 -10 -10 -10 -10 -9 -9
-1 -1 -4 -2 -0 -1 -2 -3 -3 -4 -5 -5 -4 -3 -3 -2 -2 -2 -3 -4 -7 -8 -9 -8 -9 -11 -11 -12 -11 -10 -7 -4 -3 -3 -5 -6 -8 -9 -9 -10 -12 -15 -17 -16 -16 -16 -15 -15 -13 -12 -12 -11 -10 -10
-1 -2 -3 -1 -1 -1 -2 -4 -4 -4 -5 -4 -4 -3 -4 -3 -4 -3 -3 -5 -8 -10 -8 -11 -12 -11 -9 -11 -11 -9 -5 -4 -4 -8 -9 -9 -9 -9 -10 -16 -19 -20 -20 -21 -21 -20 -19 -19 -17 -15 -13 -12 -11 -10
-2 -2 -2 -2 -1 -3 -4 -4 -5 -5 -5 -4 -4 -4 -4 -3 -4 -5 -5 -7 -9 -10 -10 -11 -11 -10 -8 -10 -10 -7 -5 -5 -6 -8 -9 -9 -10 -14 -20 -22 -22 -21 -21 -21 -20 -20 -19 -18 -18 -17 -17 -16 -14 -12
-2 -2 -2 -2 -4 -5 -6 -5 -5 -5 -5 -6 -6 -5 -6 -5 -4 -5 -5 -6 -6 -9 -10 -11 -10 -9 -8 -7 -7 -6 -7 -8 -9 -9 -10 -15 -20 -20 -17 -16 -16 -18 -19 -18 -18 -17 -16 -16 -15 -15 -14 -14 -14 -14
-2 -2 -2 -3 -4 -6 -6 -6 -5 -6 -6 -6 -6 -6 -7 -7 -5 -6 -5 -6 -6 -8 -9 -10 -10 -8 -7 -8 -9 -9 -9 -9 -9 -15 -19 -16 -14 -14 -14 -14 -15 -16 -16 -16 -16 -15 -14 -14 -14 -13 -13 -13 -13 -13
-2 -2 -3 -5 -6 -6 -6 -6 -6 -6 -5 -6 -7 -7 -8 -7 -6 -6 -6 -6 -6 -7 -7 -8 -8 -8 -9 -9 -9 -8 -8 -11 -19 -15 -13 -11 -11 -12 -15 -16 -16 -16 -16 -15 -15 -14 -14 -14 -14 -15 -15 -15 -14 -14
-5 -6 -4 -5 -5 -6 -7 -7 -7 -7 -6 -6 -6 -8 -8 -6 -5 -3 -6 -7 -6 -6 -8 -7 -7 -8 -8 -9 -8 -7 -12 -18 -14 -11 -11 -12 -13 -15 -16 -16 -15 -15 -15 -14 -15 -15 -16 -16 -16 -16 -15 -15 -15 -15
-5 -6 -6 -5 -5 -7 -7 -7 -6 -6 -6 -6 -8 -8 -6 -2 -1 -4 -7 -6 -5 -7 -7 -7 -8 -8 -8 -7 -8 -15 -15 -11 -10 -11 -11 -12 -14 -15 -15 -15 -15 -16 -16 -16 -16 -16 -15 -14 -14 -14 -14 -14 -14 -14
-6 -7 -6 -7 -7 -6 -7 -6 -5 -5 -5 -7 -7 -5 -1 -1 -3 -7 -9 -8 -9 -8 -8 -7 -6 -6 -6 -12 -16 -12 -11 -11 -10 -11 -12 -14 -15 -16 -16 -17 -17 -16 -16 -14 -14 -14 -14 -14 -14 -14 -14 -14 -14 -14
-7 -7 -7 -9 -10 -10 -9 -6 -6 -6 -6 -6 -4 -4 -7 -8 -9 -9 -9 -9 -7 -8 -9 -11 -12 -15 -15 -12 -12 -12 -11 -10 -12 -15 -16 -16 -16 -15 -15 -15 -15 -14 -14 -15 -14 -14 -14 -15 -15 -15 -15 -15 -15 -15
-7 -6 -9 -12 -12 -11 -11 -10 -9 -7 -6 -6 -7 -8 -9 -9 -8 -8 -8 -8 -8 -9 -13 -15 -15 -13 -14 -14 -12 -10 -12 -15 -15 -15 -14 -14 -14 -15 -15 -15 -15 -15 -15 -15 -15 -16 -15 -15 -15 -15 -16 -16 -16 -16
-7 -9 -11 -12 -13 -12 -11 -9 -8 -7 -7 -8 -7 -8 -9 -9 -9 -8 -8 -9 -11 -13 -13 -13 -13 -12 -12 -10 -12 -15 -15 -14 -13 -13 -14 -15 -15 -15 -15 -15 -16 -16 -16 -16 -16 -16 -15 -15 -15 -15 -15 -15 -15 -15
-8 -9 -11 -11 -11 -10 -9 -8 -8 -9 -8 -8 -10 -9 -8 -8 -9 -10 -11 -11 -12 -13 -14 -14 -13 -10 -12 -14 -14 -13 -13 -13 -13 -15 -15 -15 -15 -16 -16 -16 -16 -16 -16 -16 -16 -16 -15 -15 -15 -15 -15 -15 -15 -15
-8 -9 -10 -10 -10 -10 -9 -8 -7 -9 -9 -10 -10 -10 -9 -10 -10 -11 -12 -12 -13 -13 -11 -10 -12 -13 -13 -13 -13 -13 -13 -15 -15 -15 -16 -16 -16 -16 -16 -16 -16 -16 -16 -16 -15 -15 -15 -15 -15 -15 -15 -14 -14 -14

GFSWCAN_850_dewp_096.txt.gz
Dewpoint
2 -1 -26 -13 -21 -19 -4 3 4 4 2 2 2 2 1 1 1 -0 -6 -5 -2 -2 -2 -1 -1 -0 -0 0 1 1 1 0 0 2 1 0 -0 0 0 -0 1 0 1 2 1 2 1 -3 -3 -3 -4 -0 0 -0
1 -4 -27 -13 -21 -19 -1 3 3 2 3 1 3 2 1 1 1 0 -3 -2 -1 -1 -2 -2 -1 -1 -1 -1 0 0 -0 0 0 1 -1 -0 -0 -1 -0 -0 -1 1 -1 -0 0 -2 -4 -3 -3 -4 -2 -0 -0 -0
1 -7 -27 -13 -21 -18 1 2 1 2 3 2 3 3 2 1 1 1 -3 -2 -2 -1 -2 -2 -1 -1 -1 0 -0 -1 -1 -1 -2 -3 -0 0 0 -2 -0 -1 -0 -1 -3 -1 -1 -2 -3 -2 -3 -2 -2 -1 -1 -1
1 -10 -26 -13 -22 -18 2 2 0 1 4 3 2 1 2 2 -4 -3 -4 -3 -2 -3 -1 -2 -2 -2 -1 -0 -1 -1 -1 -1 -2 -1 -0 0 -0 -2 -1 -3 -1 -2 -2 -1 -1 -3 -2 -2 -2 -2 -1 -1 -1 -1
1 -12 -26 -14 -21 -19 1 2 3 2 3 2 3 3 2 2 -1 -7 -6 -5 -7 -7 -2 -3 -2 -2 -2 -2 -1 -1 -1 -2 -2 -1 -1 -0 -1 -1 -2 -2 -1 -3 -2 -2 -3 -3 -4 -3 -3 -2 -2 -2 -2 -2
0 -15 -24 -14 -17 -19 1 2 3 3 3 3 3 2 2 1 -2 -5 -7 -8 -8 -5 -4 -1 -3 -3 -2 -2 -1 -1 -1 -2 -3 -1 -2 -2 -2 -2 -0 -0 -3 -3 -3 -3 -4 -4 -3 -3 -3 -2 -2 -2 -2 -2
-0 -17 -23 -14 -12 -19 -0 2 3 3 3 3 3 3 3 2 1 -1 -6 -5 -7 -8 -7 -3 -3 -4 -3 -2 -2 -3 -2 -3 -4 -3 -3 -3 -2 -1 -1 -1 -6 -5 -3 -3 -3 -3 -2 -2 -2 -2 -2 -2 -2 -3
-2 -20 -22 -14 -8 -17 0 2 2 3 3 3 2 2 2 2 0 -3 -4 -5 -7 -6 -8 -3 -3 -4 -4 -4 -3 -4 -5 -4 -4 -3 -4 -4 -3 -4 -2 -4 -4 -6 -3 -3 -3 -3 -3 -3 -2 -2 -2 -2 -3 -2
-6 -22 -20 -12 -5 -14 0 1 2 2 2 2 1 -2 -4 -4 -3 -5 -4 -5 -5 -4 -5 -4 -2 -2 -4 -4 -5 -5 -5 -3 -5 -4 -4 -4 -4 -2 -3 -5 -5 -6 -3 -2 -2 -2 -3 -3 -2 -2 -3 -3 -2 -2
-10 -24 -17 -11 -4 -12 0 1 2 2 2 -1 -3 -5 -5 -5 -6 -4 -3 -4 -4 -3 -5 -4 -5 -3 -4 -3 -3 -3 -3 -4 -2 -4 -4 -3 -3 -6 -7 -8 -8 -7 -5 -3 -2 -2 -2 -3 -3 -3 -3 -2 -2 -3
-16 -23 -15 -8 -3 -10 -1 1 2 1 -1 -4 -5 -5 -4 -6 -4 -4 -4 -3 -4 -2 -3 -4 -3 -3 -4 -3 -3 -4 -2 -3 -1 -3 -3 -3 -3 -5 -8 -10 -9 -9 -5 -4 -3 -3 -3 -5 -4 -3 -2 -2 -2 -4
-22 -22 -13 -5 -3 -6 -2 1 1 1 0 -3 -4 -4 -4 -4 -4 -4 -3 -4 -3 -2 -3 -3 -3 -3 -4 -4 -3 -3 -3 -4 -2 -4 -2 -2 -4 -8 -7 -8 -9 -9 -5 -4 -3 -4 -5 -3 -3 -3 -3 -3 -5 -6
-23 -19 -14 -5 -3 -3 -4 0 2 1 -0 -4 -3 -3 -3 -3 -2 -2 -3 -2 -2 -3 -3 -3 -2 -4 -4 -4 -3 -4 -2 -2 -4 -2 -3 -4 -8 -8 -7 -7 -8 -8 -4 -4 -4 -3 -4 -3 -3 -3 -3 -5 -5 -7
-24 -23 -15 -3 -2 -2 -5 1 1 0 -1 -1 -1 -1 -1 -2 -3 -3 -3 -2 -4 -4 -3 -3 -2 -3 -3 -3 -3 -2 -4 -4 -2 -2 -3 -7 -8 -9 -6 -7 -8 -7 -4 -4 -4 -4 -5 -3 -3 -4 -6 -6 -6 -7
-25 -21 -13 -3 -1 -1 -3 -4 0 -0 0 -0 -1 0 -1 -4 -6 -6 -5 -5 -4 -4 -3 -4 -3 -4 -3 -3 -4 -3 -3 -2 -3 -4 -4 -9 -9 -8 -6 -6 -7 -6 -5 -5 -5 -5 -3 -3 -5 -7 -7 -7 -7 -6
-23 -20 -14 -3 -1 -0 -1 -4 -1 -1 -0 -1 -2 -3 -5 -5 -4 -3 -3 -4 -3 -3 -5 -5 -3 -3 -3 -3 -2 -2 -3 -4 -3 -3 -7 -8 -8 -6 -6 -6 -6 -6 -5 -5 -5 -3 -4 -6 -6 -7 -8 -8 -7 -6
-17 -14 -18 -5 -2 -1 -0 -2 -2 -2 -1 -2 -3 -2 -5 -6 -5 -5 -4 -4 -4 -4 -2 -4 -4 -4 -4 -3 -3 -4 -3 -3 -8 -9 -7 -7 -7 -5 -6 -6 -5 -5 -5 -3 -3 -5 -5 -7 -10 -11 -10 -9 -9 -10
-10 -19 -18 -5 -2 -1 -1 -2 -2 -3 -2 -2 -3 -3 -3 -5 -6 -4 -4 -3 -3 -4 -6 -5 -7 -4 -3 -4 -4 -4 -6 -8 -9 -7 -5 -7 -4 -5 -5 -5 -4 -3 -3 -3 -4 -8 -11 -12 -12 -13 -14 -14 -14 -14
-19 -22 -15 -2 -1 -1 -2 -2 -2 -2 -3 -3 -3 -4 -5 -5 -6 -5 -4 -3 -3 -4 -7 -7 -5 -4 -5 -6 -5 -11 -9 -8 -5 -4 -5 -5 -4 -5 -4 -3 -3 -3 -7 -10 -12 -13 -15 -16 -16 -17 -17 -17 -17 -17
-9 -10 -4 -1 -0 -1 -2 -2 -3 -3 -5 -4 -4 -3 -4 -4 -4 -4 -4 -2 -2 -3 -4 -4 -6 -9 -13 -15 -14 -15 -13 -9 -7 -3 -3 -3 -3 -3 -3 -3 -8 -10 -11 -14 -17 -18 -18 -19 -19 -18 -18 -18 -17 -17
-6 -5 -2 -1 -1 -2 -3 -3 -3 -4 -6 -6 -4 -3 -3 -4 -3 -3 -2 -2 -2 -3 -4 -6 -9 -11 -14 -16 -14 -14 -12 -10 -6 -7 -4 -2 -2 -3 -7 -10 -10 -13 -17 -19 -20 -19 -19 -19 -18 -17 -17 -16 -16 -16
-3 -4 -2 -1 -2 -2 -2 -3 -4 -4 -4 -4 -5 -4 -4 -3 -3 -3 -3 -3 -3 -3 -3 -6 -9 -10 -12 -13 -14 -14 -11 -8 -4 -5 -5 -3 -4 -8 -9 -10 -12 -19 -20 -18 -18 -18 -17 -16 -16 -16 -16 -16 -16 -16
-2 -2 -2 -2 -2 -3 -4 -4 -5 -5 -5 -5 -4 -3 -4 -4 -4 -3 -3 -3 -3 -3 -3 -4 -6 -10 -12 -13 -11 -10 -8 -6 -4 -5 -4 -6 -9 -10 -10 -13 -20 -19 -16 -16 -16 -16 -16 -16 -16 -15 -16 -16 -18 -18
-2 -1 -2 -2 -3 -5 -6 -6 -5 -5 -5 -5 -4 -3 -4 -4 -5 -5 -3 -4 -4 -4 -5 -6 -6 -8 -11 -9 -8 -7 -6 -4 -6 -8 -9 -9 -10 -10 -17 -19 -16 -15 -14 -14 -15 -16 -16 -15 -16 -17 -17 -17 -15 -15
-2 -3 -3 -5 -6 -8 -8 -7 -6 -6 -7 -5 -5 -6 -6 -6 -4 -3 -4 -5 -5 -5 -5 -6 -8 -8 -10 -11 -8 -5 -4 -5 -7 -9 -10 -10 -13 -18 -17 -14 -13 -13 -14 -15 -15 -15 -16 -17 -17 -16 -15 -15 -15 -16
-2 -3 -4 -6 -8 -8 -8 -7 -7 -7 -8 -9 -8 -9 -7 -6 -5 -4 -5 -5 -5 -5 -5 -5 -6 -7 -9 -11 -10 -7 -6 -6 -8 -9 -12 -16 -17 -14 -13 -12 -13 -14 -14 -15 -16 -17 -17 -16 -15 -16 -16 -16 -16 -16
-4 -5 -5 -6 -7 -8 -8 -8 -8 -8 -9 -8 -8 -8 -6 -5 -4 -5 -5 -5 -5 -5 -5 -5 -6 -6 -7 -10 -9 -7 -7 -8 -9 -12 -15 -15 -12 -12 -13 -13 -13 -15 -17 -17 -16 -16 -15 -16 -17 -17 -17 -16 -16 -16
-5 -6 -6 -7 -8 -8 -8 -7 -7 -6 -7 -8 -8 -6 -5 -4 -4 -5 -5 -6 -6 -6 -6 -6 -6 -6 -6 -9 -9 -8 -8 -9 -14 -16 -13 -12 -12 -12 -13 -15 -17 -17 -16 -16 -16 -16 -17 -17 -17 -17 -16 -16 -16 -16
-8 -7 -7 -10 -10 -9 -8 -7 -6 -7 -7 -7 -6 -6 -6 -5 -5 -5 -5 -6 -6 -6 -6 -6 -6 -5 -7 -8 -8 -8 -9 -8 -16 -13 -12 -12 -13 -13 -16 -17 -16 -16 -16 -16 -17 -17 -17 -17 -17 -16 -16 -16 -16 -15
-7 -7 -10 -13 -8 -7 -9 -8 -7 -6 -6 -7 -6 -7 -6 -6 -6 -6 -7 -7 -6 -5 -5 -5 -5 -4 -5 -8 -9 -8 -5 -13 -13 -12 -12 -12 -14 -15 -16 -16 -16 -16 -16 -17 -17 -17 -17 -16 -16 -15 -15 -15 -15 -15
-7 -9 -12 -12 -12 -12 -11 -8 -8 -7 -7 -7 -7 -8 -9 -8 -8 -8 -9 -7 -6 -5 -5 -4 -4 -4 -8 -7 -3 -4 -12 -12 -11 -12 -13 -15 -16 -16 -17 -16 -16 -17 -17 -17 -17 -16 -16 -16 -16 -15 -15 -15 -15 -15
-8 -10 -11 -11 -11 -10 -9 -8 -8 -8 -9 -9 -9 -9 -9 -9 -9 -9 -8 -8 -7 -7 -6 -5 -5 -6 -7 -3 -3 -8 -12 -12 -12 -14 -16 -16 -16 -17 -16 -17 -17 -17 -17 -16 -16 -16 -16 -16 -16 -15 -15 -15 -15 -15
-9 -10 -10 -10 -10 -10 -9 -8 -8 -9 -9 -9 -10 -10 -9 -9 -10 -9 -8 -8 -7 -7 -6 -5 -5 -4 -4 -8 -12 -12 -13 -14 -15 -16 -16 -17 -16 -17 -17 -17 -17 -17 -16 -16 -16 -16 -16 -15 -15 -15 -15 -15 -15 -14

GFSWCAN_850_dewp_099.txt.gz
Dewpoint
3 2 1 -22 -14 -24 -1 2 2 2 1 1 1 1 2 0 -1 -3 -5 -4 -1 -1 -1 -1 -1 0 -0 1 0 1 1 1 1 2 1 -0 -2 -1 -1 -1 -0 -1 0 1 0 2 2 -3 -3 -3 -2 -1 -0 -0
3 2 1 -21 -14 -23 -5 2 2 2 1 1 1 1 1 1 1 1 -3 -2 -2 -0 -1 -2 -1 -1 -1 -0 1 1 1 1 1 2 -0 -1 -1 -2 -2 -2 -1 1 -2 -1 -1 -1 -4 -3 -3 -3 -2 -0 0 0
3 1 1 -21 -14 -23 -6 1 1 2 2 0 1 1 2 2 1 1 -0 -2 -2 -1 -1 -1 -1 -1 -1 -1 -0 0 -0 -0 -0 -2 0 -0 -0 -2 -2 -3 -2 -2 -2 -1 -1 -4 -3 -3 -2 -2 -1 -1 0 -0
3 1 0 -20 -15 -22 -2 1 2 3 2 1 1 2 1 1 -3 -3 -3 -3 -1 -1 0 -1 -1 -1 -1 -0 -0 -1 -1 -1 -1 -1 -0 -0 -1 -2 -3 -2 -2 -4 -2 -2 -2 -4 -3 -2 -2 -2 -1 -1 -0 -0
3 0 0 -17 -16 -20 -6 1 2 3 3 2 1 1 1 2 0 -7 -6 -4 -6 -4 -0 -2 -2 -2 -1 -1 -1 -1 -1 -0 0 -0 -0 -1 -1 -1 -2 -2 -2 -4 -3 -2 -4 -5 -5 -5 -3 -2 -1 -1 -1 -1
3 0 0 -17 -18 -17 -13 2 2 3 3 2 2 3 2 2 0 -3 -5 -8 -7 -5 -2 1 -2 -2 -2 -1 -1 -1 -1 -2 -1 0 -1 -1 -2 -1 -0 -2 -5 -5 -5 -5 -5 -4 -3 -3 -3 -2 -1 -1 -1 -1
3 0 -0 -16 -18 -14 -16 1 2 2 3 3 2 2 2 2 2 1 -5 -6 -7 -8 -6 -1 -1 -3 -3 -2 -2 -2 -2 -2 -2 -1 -1 -1 -2 -1 -0 -1 -7 -5 -4 -3 -3 -4 -2 -3 -2 -2 -1 -1 -2 -2
3 0 -1 -17 -17 -12 -14 1 2 2 3 3 3 3 3 3 3 1 -0 -2 -7 -8 -9 -0 -1 -3 -3 -2 -2 -3 -2 -2 -2 -1 -3 -3 -2 -2 -0 -3 -5 -6 -4 -3 -3 -2 -2 -3 -3 -2 -1 -2 -1 -2
3 1 -2 -17 -17 -12 -5 1 1 2 3 3 2 1 -1 -1 -2 -2 -4 -5 -6 -6 -1 -3 0 0 -4 -3 -3 -3 -3 -2 -3 -3 -2 -3 -3 -0 -2 -4 -5 -4 -4 -3 -2 -2 -3 -2 -2 -2 -2 -1 -2 -2
3 1 -3 -17 -18 -11 -4 1 1 2 2 2 -1 -3 -5 -5 -5 -7 -5 -4 -4 -3 -4 -3 -4 -2 -3 -3 -3 -3 -3 -3 0 -3 -3 -3 -2 -4 -6 -5 -6 -6 -5 -3 -2 -1 -2 -2 -2 -2 -2 -2 -3 -2
3 1 -6 -19 -15 -9 -3 1 1 2 1 -1 -4 -5 -5 -6 -5 -4 -2 -2 -2 -1 -1 -3 -4 -3 -3 -3 -3 -3 -1 -2 -0 -2 -3 -1 -2 -4 -6 -6 -7 -9 -7 -5 -4 -3 -3 -2 -2 -2 -3 -3 -2 -3
2 0 -9 -21 -14 -7 -4 1 1 2 0 -2 -5 -4 -5 -3 -2 -1 -1 -2 -2 -1 -2 -3 -3 -3 -3 -4 -3 -3 -1 -3 -1 -4 -2 -1 -4 -6 -9 -8 -6 -9 -9 -5 -3 -3 -3 -3 -4 -4 -3 -3 -3 -4
2 -2 -15 -20 -9 -5 -7 1 0 1 -0 -3 -3 -3 -3 -2 -1 -1 -1 -1 -1 -2 -2 -3 -3 -3 -4 -2 -3 -3 -1 -1 -4 -2 -2 -3 -5 -9 -8 -7 -7 -8 -8 -4 -3 -3 -4 -5 -4 -3 -4 -4 -5 -6
1 -5 -19 -18 -6 -4 -4 -0 1 1 -2 -2 -2 0 0 1 -0 -0 -2 2 -1 -1 -2 -2 -2 -2 -3 -2 -3 -1 -3 -4 -1 -1 -1 -4 -6 -8 -9 -7 -8 -6 -5 -4 -3 -4 -4 -4 -4 -4 -4 -5 -7 -7
-1 -12 -20 -14 -5 -2 -4 -1 1 -1 -0 -0 -1 -0 0 -1 -2 -3 -3 -5 -5 -2 -2 -2 -2 -3 -2 -1 -3 -3 -2 -1 -3 -2 -1 -5 -10 -9 -7 -7 -7 -7 -5 -4 -4 -4 -5 -4 -4 -5 -6 -7 -8 -8
-6 -17 -16 -11 -3 -2 -2 -1 -0 -1 0 -0 -1 -1 -2 -2 -0 -2 -3 -1 -4 -2 -4 -4 -1 -2 -1 -2 -2 -2 -2 -2 -1 -1 -5 -9 -9 -8 -6 -7 -8 -7 -5 -4 -5 -5 -5 -3 -5 -7 -7 -9 -9 -9
-16 -17 -19 -13 -3 -1 -1 -2 -1 -1 -1 -1 -1 -1 -2 -3 -1 -2 -2 -2 -4 -3 -0 -1 -1 -1 -3 -2 -2 -3 -1 0 -4 -8 -9 -9 -9 -7 -6 -7 -7 -6 -5 -5 -5 -5 -3 -5 -6 -7 -10 -11 -11 -11
-12 -14 -18 -14 -1 -0 -1 -2 -3 -4 -2 -2 -2 -2 -3 -3 -4 -4 -3 -3 -3 -2 -3 -2 -4 -3 -2 -2 -1 -1 -5 -8 -9 -10 -8 -7 -8 -6 -6 -6 -6 -6 -5 -5 -4 -4 -5 -6 -10 -11 -13 -14 -16 -17
-9 -16 -19 -14 -1 -1 -1 -2 -2 -2 -2 -2 -3 -4 -3 -3 -3 -3 -4 -4 -3 -3 -5 -5 -2 -2 -3 -4 -2 -9 -12 -9 -6 -7 -5 -6 -5 -5 -6 -5 -5 -5 -4 -3 -4 -5 -10 -12 -14 -16 -17 -18 -18 -18
-11 -18 -18 -5 -2 -1 -1 -2 -2 -2 -3 -3 -4 -3 -4 -4 -4 -4 -4 -3 -3 -3 -2 -2 -3 -6 -8 -14 -15 -14 -14 -13 -8 -5 -5 -4 -4 -5 -5 -4 -3 -3 -3 -7 -10 -12 -15 -17 -18 -18 -18 -18 -17 -17
-16 -15 -5 -2 -2 -2 -1 -3 -3 -3 -4 -5 -5 -3 -3 -3 -3 -3 -2 -2 -2 -2 -1 -2 -3 -5 -6 -10 -11 -11 -12 -13 -10 -6 -6 -4 -4 -4 -4 -3 -3 -7 -10 -11 -15 -17 -18 -19 -18 -17 -16 -16 -16 -16
-8 -9 -4 -3 -2 -2 -2 -3 -3 -4 -5 -4 -4 -3 -3 -3 -3 -3 -3 -2 -3 -3 -4 -4 -4 -3 -4 -4 -4 -7 -8 -11 -11 -6 -5 -5 -4 -3 -2 -4 -9 -10 -13 -16 -19 -19 -18 -17 -16 -16 -16 -16 -16 -17
-6 -6 -3 -3 -2 -3 -3 -3 -3 -4 -3 -3 -4 -4 -3 -3 -3 -4 -3 -3 -3 -4 -4 -4 -4 -4 -4 -5 -7 -10 -10 -9 -9 -8 -6 -6 -4 -3 -4 -8 -10 -12 -16 -19 -18 -17 -16 -15 -16 -16 -16 -17 -17 -17
-4 -4 -2 -2 -3 -3 -5 -5 -4 -4 -4 -4 -4 -3 -3 -3 -4 -3 -3 -5 -6 -5 -5 -4 -4 -4 -4 -6 -7 -5 -5 -9 -9 -5 -5 -5 -4 -5 -8 -9 -11 -16 -19 -17 -15 -14 -15 -15 -15 -17 -17 -17 -16 -16
-3 -3 -2 -2 -5 -6 -6 -6 -5 -5 -4 -5 -4 -3 -4 -5 -4 -3 -3 -4 -5 -4 -4 -4 -4 -4 -4 -5 -5 -6 -7 -8 -8 -4 -4 -5 -5 -8 -9 -10 -17 -18 -16 -14 -14 -15 -15 -16 -17 -16 -16 -16 -17 -17
-2 -2 -3 -4 -6 -6 -6 -6 -6 -5 -6 -5 -4 -5 -6 -5 -4 -3 -3 -6 -5 -6 -5 -4 -4 -4 -4 -4 -5 -5 -8 -9 -6 -5 -6 -7 -8 -9 -9 -14 -17 -15 -13 -14 -14 -15 -17 -17 -16 -16 -17 -17 -17 -17
-2 -1 -3 -5 -7 -7 -7 -8 -7 -6 -6 -5 -6 -6 -5 -4 -4 -4 -6 -6 -6 -6 -6 -5 -4 -4 -4 -5 -6 -6 -6 -6 -5 -7 -8 -9 -9 -13 -16 -16 -14 -13 -13 -14 -16 -17 -16 -16 -17 -17 -17 -17 -17 -17
-3 -4 -6 -7 -7 -7 -7 -6 -6 -6 -5 -7 -6 -4 -4 -4 -3 -7 -7 -7 -7 -7 -6 -5 -4 -4 -4 -5 -6 -7 -6 -5 -5 -8 -9 -12 -15 -12 -14 -13 -13 -13 -15 -17 -16 -16 -16 -17 -18 -17 -17 -17 -17 -16
-6 -6 -7 -6 -7 -7 -6 -6 -6 -6 -7 -7 -5 -5 -5 -7 -8 -8 -8 -7 -6 -6 -6 -6 -5 -4 -4 -5 -6 -6 -3 -6 -7 -10 -13 -14 -10 -11 -13 -13 -13 -16 -17 -17 -16 -17 -18 -17 -17 -17 -17 -17 -16 -16
-7 -6 -6 -6 -7 -6 -6 -8 -7 -8 -8 -8 -8 -8 -8 -8 -8 -8 -7 -7 -6 -6 -6 -5 -4 -4 -5 -5 -4 -4 -2 -4 -9 -10 -8 -6 -5 -11 -13 -13 -15 -16 -17 -16 -17 -18 -17 -17 -17 -17 -16 -16 -16 -16
-7 -8 -8 -8 -7 -9 -9 -8 -8 -8 -7 -7 -7 -7 -8 -7 -7 -7 -7 -6 -6 -6 -6 -6 -5 -5 -5 -5 -3 -3 -5 -7 -11 -7 -3 -4 -11 -13 -13 -15 -16 -17 -16 -17 -17 -17 -17 -17 -16 -16 -16 -16 -16 -16
-8 -8 -8 -8 -10 -10 -10 -8 -8 -7 -8 -8 -8 -8 -8 -8 -8 -7 -7 -7 -7 -7 -7 -6 -6 -5 -5 -4 -3 -3 -4 -7 -3 -4 -8 -11 -13 -15 -16 -17 -17 -17 -18 -17 -17 -17 -16 -16 -16 -16 -16 -16 -15 -15
-10 -9 -9 -10 -10 -9 -9 -8 -8 -8 -8 -8 -9 -9 -8 -8 -8 -8 -7 -7 -7 -8 -7 -6 -6 -5 -5 -5 -4 -4 -4 -4 -5 -6 -11 -14 -16 -17 -17 -17 -17 -17 -17 -17 -16 -16 -16 -16 -16 -15 -15 -15 -15 -15

GFSWCAN_850_dewp_105.txt.gz
Dewpoint
1 3 3 4 1 -2 -17 -18 1 1 1 -1 1 -0 -1 -1 -1 0 -0 -2 -2 -1 -1 -1 -1 -0 -0 1 1 1 0 0 1 1 1 0 -1 -1 -1 -2 -1 0 0 1 1 1 1 -3 -4 -3 -4 -1 -1 -2
2 3 4 4 1 -1 -18 -23 -0 1 1 -0 0 1 1 -2 -2 0 -1 -1 -2 -1 -1 -2 -2 -1 -0 -0 1 1 1 1 2 0 -0 -1 -1 -2 -2 -1 -2 -1 -2 -1 -1 -0 -3 -4 -4 -4 -1 -1 -0 -0
2 3 4 4 2 -1 -19 -21 -2 1 1 1 0 1 1 1 0 -0 -0 -1 -2 -1 -2 -2 -2 -1 -1 -1 -1 1 0 -0 0 -1 1 0 -0 -2 -1 -2 -2 -2 -3 -1 -2 -5 -3 -4 -3 -4 -1 -1 -1 -1
2 4 4 4 3 -0 -16 -19 -2 1 1 1 1 1 1 1 -1 -2 -2 -4 -2 -0 0 -1 -2 -2 -1 -1 -1 -0 -0 -1 -1 -1 0 0 1 -2 -2 -4 -2 -4 -3 -2 -2 -3 -3 -3 -3 -3 -3 -0 -0 -1
2 4 4 4 4 0 -14 -18 -1 2 1 1 2 2 2 1 0 -5 -7 -5 -4 -6 0 -1 -2 -2 -1 -1 -1 -0 -0 -1 -0 0 -1 -0 -1 -1 -2 -2 -1 -3 -2 -1 -2 -4 -4 -5 -4 -4 -3 -2 -1 -1
3 4 4 4 4 1 -9 -17 -1 2 1 1 1 2 2 1 1 -2 -5 -8 -8 -6 -4 -2 -2 -2 -2 -1 -1 -1 -1 -1 -1 1 0 -0 -1 -2 -1 -0 -3 -3 -4 -5 -5 -6 -5 -5 -6 -5 -4 -4 -3 -2
3 4 4 4 4 2 -5 -17 -10 2 2 2 2 2 1 2 1 -0 -2 -4 -1 -3 -7 -4 -2 -2 -3 -2 -1 -1 -1 -1 -2 -0 -0 -1 -2 -2 -2 -0 -4 -7 -5 -5 -5 -5 -4 -4 -4 -5 -4 -4 -3 -3
4 4 4 4 4 1 -4 -17 -15 2 2 2 2 2 2 2 1 1 1 1 -0 -3 -8 -5 -5 -4 -3 -2 -2 -2 -2 -2 -2 -2 -1 -2 -2 -2 -1 -3 -3 -4 -6 -6 -5 -5 -5 -5 -4 -4 -3 -3 -2 -2
4 4 4 4 4 2 -4 -16 -13 1 2 2 3 3 2 2 2 1 1 0 -1 -5 -4 -4 -5 -4 -3 -2 -2 -3 -2 -2 -2 -3 -2 -2 -2 -1 -2 -3 -4 -6 -4 -5 -5 -5 -4 -4 -4 -4 -3 -3 -3 -2
5 4 4 5 4 3 -3 -15 -6 0 1 2 2 2 1 -2 -2 -3 -4 -4 -4 -5 -5 -2 -4 -3 -3 -3 -3 -2 -3 -2 -3 -2 -3 -2 -2 -3 -5 -6 -6 -7 -7 -5 -4 -3 -3 -3 -3 -3 -4 -4 -4 -3
5 4 4 5 4 3 -5 -14 -2 0 2 2 2 0 -2 -4 -5 -4 -1 -2 -1 -1 -3 -4 -3 -4 -3 -3 -2 -3 -3 -4 -4 -4 -2 -3 -2 -4 -7 -7 -8 -6 -6 -7 -5 -6 -6 -5 -4 -3 -3 -3 -3 -2
4 4 5 4 4 3 -9 -12 -1 1 2 2 -0 -2 -4 -5 -2 -4 -4 -3 -3 -3 -2 -3 -3 -4 -4 -3 -2 -3 -3 -4 -3 -4 -4 -3 -5 -6 -7 -8 -9 -9 -6 -6 -6 -5 -6 -5 -5 -4 -3 -3 -3 -2
4 4 4 4 4 3 -10 -5 -0 2 2 -1 -4 -5 -4 -3 -3 -4 -3 -3 -5 -3 -2 -3 -4 -5 -4 -4 -2 -4 -4 -3 -4 -5 -3 -4 -6 -9 -10 -9 -8 -10 -7 -5 -6 -6 -6 -6 -4 -3 -3 -2 -2 -3
4 4 4 4 3 2 -7 -4 1 2 1 -1 -2 -2 -3 -3 -3 -3 -4 -4 -4 -2 -3 -4 -3 -3 -3 -3 -3 -5 -4 -4 -5 -5 -4 -6 -6 -10 -10 -10 -8 -8 -5 -5 -5 -6 -6 -4 -3 -3 -2 -2 -3 -3
4 4 4 4 3 1 -5 -3 1 1 -0 -1 -1 -0 -1 -2 -1 -1 -1 -2 -2 -3 -3 -3 -3 -3 -4 -4 -3 -4 -4 -4 -4 -5 -6 -7 -8 -10 -11 -10 -8 -8 -6 -5 -4 -4 -3 -3 -3 -3 -3 -3 -3 -4
4 3 4 3 3 0 -3 -0 1 0 0 -1 -1 -1 -1 -2 -2 -2 -3 -4 -4 -3 -3 -3 -5 -5 -4 -4 -4 -4 -6 -6 -6 -5 -9 -9 -10 -10 -10 -9 -8 -7 -6 -4 -3 -3 -3 -2 -3 -4 -4 -4 -5 -7
3 2 2 3 2 -1 -2 -0 -0 -0 -0 -0 -1 -2 -2 -2 -3 -2 -2 -4 -4 -2 -5 -5 -4 -5 -6 -7 -4 -5 -5 -5 -6 -9 -11 -10 -11 -13 -10 -9 -7 -7 -6 -4 -3 -3 -3 -3 -3 -4 -4 -5 -7 -8
2 2 2 2 -0 -2 -2 -1 -1 -1 -1 -1 -2 -1 -1 -2 -2 -1 -1 -3 -3 -3 -3 -5 -5 -6 -6 -5 -5 -5 -5 -7 -10 -10 -10 -7 -7 -9 -11 -8 -7 -6 -5 -5 -3 -3 -3 -3 -4 -4 -5 -6 -8 -11
2 1 1 1 -2 -2 -1 -1 -1 -2 -2 -2 -2 -2 -1 -1 -2 -4 -4 -4 -4 -4 -4 -4 -6 -6 -5 -5 -6 -9 -7 -9 -11 -11 -9 -7 -6 -5 -8 -8 -7 -6 -5 -4 -3 -3 -4 -5 -4 -4 -6 -8 -12 -15
1 1 0 -1 -2 -2 -2 -2 -2 -2 -3 -3 -3 -2 -2 -3 -4 -3 -3 -4 -2 -2 -4 -5 -5 -4 -4 -6 -6 -7 -8 -8 -11 -12 -10 -7 -6 -5 -5 -7 -6 -6 -5 -4 -3 -3 -4 -4 -4 -5 -9 -13 -16 -18
-0 -2 -1 -2 -2 -1 -1 -3 -2 -2 -3 -3 -3 -3 -3 -3 -4 -4 -3 -3 -2 -2 -4 -4 -5 -5 -5 -5 -5 -5 -5 -5 -5 -5 -5 -5 -6 -6 -4 -5 -6 -5 -4 -4 -4 -4 -4 -4 -5 -10 -14 -17 -18 -17
-2 -2 -2 -2 -1 -2 -2 -3 -3 -3 -3 -3 -3 -3 -4 -4 -4 -3 -3 -2 -3 -4 -4 -4 -5 -6 -6 -6 -8 -7 -7 -6 -6 -5 -5 -5 -5 -6 -5 -4 -6 -5 -5 -4 -4 -4 -4 -5 -11 -15 -18 -18 -16 -16
-3 -2 -2 -2 -2 -3 -3 -3 -4 -4 -4 -4 -4 -3 -4 -4 -4 -4 -3 -3 -4 -5 -6 -5 -6 -7 -6 -7 -6 -6 -6 -5 -5 -5 -4 -4 -5 -5 -5 -5 -6 -6 -5 -4 -3 -3 -6 -11 -15 -18 -18 -16 -15 -15
-2 -2 -3 -3 -3 -4 -4 -4 -4 -5 -4 -4 -4 -4 -5 -5 -3 -3 -4 -5 -6 -7 -6 -6 -6 -6 -6 -5 -5 -7 -7 -5 -5 -5 -5 -4 -4 -5 -6 -5 -5 -5 -5 -4 -3 -4 -11 -12 -14 -18 -16 -15 -15 -16
-4 -4 -3 -3 -4 -6 -6 -6 -5 -4 -4 -5 -5 -6 -5 -4 -4 -5 -6 -7 -6 -6 -7 -8 -6 -6 -6 -6 -7 -8 -7 -5 -5 -5 -5 -5 -5 -4 -5 -5 -5 -4 -3 -3 -2 -7 -8 -7 -17 -16 -15 -15 -16 -17
-4 -4 -4 -4 -5 -7 -7 -6 -5 -5 -6 -5 -5 -7 -5 -6 -8 -7 -8 -8 -9 -9 -8 -8 -8 -8 -7 -8 -7 -7 -7 -5 -5 -4 -4 -5 -5 -5 -5 -5 -5 -1 -0 -1 -2 -4 -6 -16 -16 -14 -14 -13 -17 -17
-4 -4 -5 -6 -6 -7 -7 -7 -6 -7 -6 -6 -6 -6 -7 -7 -8 -8 -9 -12 -11 -12 -11 -10 -9 -8 -8 -8 -7 -6 -5 -4 -4 -4 -4 -2 -3 -5 -5 -7 -5 -0 -0 -2 -3 -4 -7 -16 -15 -11 -11 -17 -17 -18
-6 -5 -5 -6 -7 -8 -8 -7 -7 -7 -7 -8 -7 -7 -7 -7 -7 -9 -11 -10 -10 -10 -9 -9 -8 -8 -7 -7 -7 -7 -7 -6 -4 -4 -4 -2 -2 -4 -5 -5 -3 -1 -2 -2 -2 -5 -14 -14 -10 -10 -17 -17 -18 -18
-4 -6 -6 -8 -8 -8 -8 -8 -8 -8 -8 -7 -7 -9 -9 -8 -11 -11 -11 -11 -10 -10 -9 -9 -9 -9 -9 -9 -8 -8 -7 -6 -4 -4 -4 -3 -3 -4 -4 -4 -3 -3 -3 -4 -8 -14 -11 -8 -13 -17 -17 -18 -18 -17
-6 -6 -8 -8 -8 -7 -8 -8 -8 -9 -8 -8 -9 -10 -10 -10 -10 -10 -10 -10 -10 -10 -9 -9 -9 -9 -9 -9 -9 -8 -7 -6 -5 -4 -4 -4 -3 -3 -4 -5 -4 -4 -4 -5 -6 -5 -7 -15 -17 -17 -18 -17 -17 -17
-5 -6 -9 -9 -8 -7 -6 -7 -7 -7 -8 -8 -8 -8 -8 -8 -9 -9 -9 -9 -9 -9 -9 -9 -9 -9 -9 -9 -8 -7 -6 -6 -5 -4 -4 -4 -5 -5 -5 -5 -5 -5 -5 -5 -5 -7 -12 -17 -18 -18 -17 -17 -17 -16
-6 -7 -8 -8 -10 -8 -7 -7 -7 -7 -7 -7 -7 -7 -8 -8 -8 -8 -9 -9 -9 -9 -9 -9 -9 -9 -9 -8 -7 -7 -6 -6 -5 -5 -4 -5 -5 -5 -5 -6 -5 -5 -5 -6 -10 -13 -17 -18 -18 -17 -17 -17 -16 -16
-8 -8 -9 -11 -14 -13 -9 -8 -9 -10 -9 -10 -9 -8 -8 -8 -9 -8 -8 -9 -9 -9 -9 -9 -8 -8 -7 -7 -7 -6 -6 -6 -5 -5 -6 -6 -5 -5 -6 -5 -5 -5 -7 -8 -14 -17 -18 -17 -17 -17 -16 -16 -15 -15

GFSWCAN_850_dewp_108.txt.gz
Dewpoint
6 5 1 1 3 2 -1 -18 -13 0 0 -1 -0 -0 -0 -1 -1 -1 -3 -4 -4 -1 -1 -2 -1 -1 -1 0 1 0 0 -0 0 1 1 0 -1 -2 -1 -2 -1 -1 0 1 1 1 0 -3 -4 -3 -5 -1 -2 -1
7 6 1 1 3 2 -0 -16 -21 -1 1 -0 0 -0 -1 -1 -2 -0 -1 -2 -2 -2 -1 -2 -1 -1 -2 -0 -0 1 0 1 1 -1 -0 -1 -1 -2 -2 -2 -4 -0 -2 -1 -0 -0 -4 -4 -4 -5 -2 -2 -1 -2
7 3 2 1 3 3 -0 -7 -19 -10 0 1 -0 0 1 1 0 -1 -1 -0 -3 -2 -2 -2 -2 -2 -2 -1 -1 -0 0 -0 0 -0 0 -0 1 -3 -1 -2 -3 -4 -3 -1 -2 -4 -3 -4 -4 -4 -3 -2 -2 -2
7 4 2 2 4 4 1 -2 -17 -14 -0 1 1 0 1 1 -2 -4 -3 -3 -2 -1 0 -1 -2 -2 -2 -1 -1 -1 -1 -0 -1 -1 -0 -1 1 -2 -1 -3 -3 -4 -3 -2 -2 -3 -4 -3 -4 -4 -3 -2 -2 -1
6 6 2 2 4 4 2 -1 -16 -9 1 1 1 1 1 1 1 -1 -5 -6 -4 -3 -2 -2 -2 -2 -2 -2 -1 -1 -1 -0 -1 -0 -1 -0 -1 -1 -2 -2 -2 -3 -3 -2 -3 -4 -4 -6 -7 -4 -4 -3 -2 -1
6 6 3 3 4 4 3 -0 -14 -5 1 1 2 2 1 1 1 0 -4 -7 -7 -6 -5 -3 -3 -2 -2 -1 -1 -1 -1 -1 -1 0 -0 0 -1 -1 -1 -1 -3 -3 -4 -4 -5 -5 -6 -6 -6 -5 -4 -4 -3 -2
5 5 4 3 4 4 4 1 -13 -4 2 1 2 2 2 2 1 0 -1 -5 -1 -1 -7 -5 -4 -2 -3 -2 -2 -1 -1 -1 -1 -1 -1 -1 -2 -1 -2 -0 -4 -5 -6 -6 -5 -4 -4 -5 -5 -5 -5 -4 -3 -3
5 5 5 4 4 4 4 1 -11 -7 2 2 2 2 2 2 2 2 0 -0 1 -1 -5 -7 -6 -4 -3 -2 -2 -2 -2 -2 -2 -2 -1 -2 -2 -2 -1 -2 -3 -4 -3 -3 -4 -5 -5 -5 -5 -4 -5 -4 -3 -3
5 5 5 4 4 4 4 3 -12 -10 3 2 2 2 2 2 2 2 1 1 1 -1 -6 -4 -6 -6 -4 -2 -2 -2 -2 -2 -2 -2 -2 -2 -2 -1 -2 -3 -3 -4 -5 -6 -6 -5 -6 -4 -5 -5 -4 -4 -3 -3
5 5 4 4 4 4 4 3 -12 -7 2 2 3 2 2 1 1 -0 -2 -2 -3 -3 -4 -3 -4 -3 -3 -2 -3 -3 -3 -3 -4 -3 -3 -2 -1 -3 -4 -5 -6 -6 -6 -5 -4 -5 -5 -4 -4 -4 -4 -4 -5 -4
5 5 4 4 4 4 4 3 -10 1 1 2 2 2 0 -2 -4 -4 -2 -2 -2 -1 -3 -4 -4 -4 -4 -3 -3 -3 -4 -5 -4 -5 -3 -4 -3 -4 -9 -12 -14 -12 -9 -8 -6 -6 -6 -6 -5 -5 -4 -4 -3 -3
4 4 4 4 4 4 4 3 -6 2 1 2 1 -1 -2 -4 -4 -4 -4 -3 -2 -3 -3 -3 -3 -5 -3 -3 -3 -3 -4 -5 -3 -4 -5 -4 -5 -9 -9 -12 -13 -12 -10 -11 -10 -7 -6 -6 -5 -5 -4 -4 -3 -3
3 4 4 4 4 4 4 2 -3 2 2 1 -2 -4 -3 -3 -2 -3 -4 -2 -3 -4 -2 -3 -4 -5 -3 -3 -3 -4 -3 -2 -5 -6 -4 -5 -8 -11 -11 -13 -13 -12 -10 -10 -8 -5 -5 -5 -5 -5 -5 -4 -3 -2
3 3 3 4 4 4 3 2 0 1 1 0 -3 -3 -3 -3 -3 -4 -4 -3 -5 -3 -3 -4 -3 -4 -4 -3 -4 -6 -4 -4 -5 -5 -5 -7 -11 -11 -13 -13 -11 -11 -10 -8 -7 -5 -4 -4 -6 -6 -4 -3 -2 -2
2 3 3 3 3 4 3 1 0 0 0 1 -0 -0 -2 -4 -3 -3 -5 -1 -2 -3 -4 -4 -3 -4 -5 -4 -3 -4 -4 -3 -4 -6 -6 -11 -11 -10 -10 -11 -11 -11 -9 -8 -6 -5 -4 -4 -5 -5 -3 -3 -2 -2
2 2 3 3 3 3 3 -0 -0 -0 -0 -0 -1 -2 -2 -2 -2 -1 -2 -2 -2 -3 -5 -5 -5 -4 -4 -5 -4 -4 -5 -5 -6 -6 -9 -10 -8 -7 -7 -7 -9 -11 -10 -8 -5 -4 -3 -3 -3 -3 -2 -2 -2 -3
1 2 2 2 3 3 1 -0 -1 -1 0 -1 -1 -1 -2 -2 -2 -1 -1 -2 -2 -3 -4 -5 -5 -5 -6 -6 -4 -5 -6 -6 -9 -11 -10 -10 -9 -7 -6 -6 -8 -9 -10 -9 -7 -3 -3 -2 -2 -2 -2 -3 -3 -4
0 1 2 2 1 1 -1 -1 -1 -0 -1 -1 -1 -1 -1 -3 -2 -2 -1 -1 -2 -3 -4 -6 -6 -6 -5 -5 -5 -5 -6 -8 -9 -9 -10 -11 -10 -7 -6 -6 -6 -6 -8 -9 -7 -5 -2 -2 -2 -3 -3 -4 -4 -6
-1 -0 1 1 -0 -1 -1 -2 -1 -2 -1 -1 -1 -2 -2 -2 -2 -1 -1 -1 -3 -4 -4 -4 -7 -6 -5 -6 -6 -8 -9 -10 -9 -10 -10 -9 -11 -8 -7 -6 -6 -6 -6 -7 -7 -5 -3 -3 -3 -3 -3 -4 -5 -6
-0 -0 1 -0 -1 -1 -1 -2 -1 -2 -3 -2 -2 -2 -2 -2 -2 -1 -1 -2 -3 -3 -4 -6 -5 -6 -6 -7 -8 -8 -8 -7 -7 -8 -8 -6 -6 -6 -6 -6 -6 -6 -5 -6 -6 -6 -3 -2 -3 -3 -3 -4 -6 -9
-0 0 0 -2 -2 -1 -1 -2 -1 -2 -3 -3 -3 -2 -2 -3 -2 -1 -1 -1 -2 -2 -4 -4 -5 -5 -6 -6 -6 -6 -5 -5 -5 -5 -5 -5 -6 -6 -6 -6 -6 -6 -5 -5 -5 -5 -4 -3 -3 -4 -4 -5 -9 -14
-0 -1 -2 -3 -2 -2 -2 -2 -2 -3 -3 -3 -3 -3 -4 -3 -3 -2 -1 -2 -2 -2 -4 -4 -4 -5 -5 -5 -6 -6 -6 -6 -6 -6 -6 -6 -5 -6 -6 -6 -5 -5 -5 -5 -5 -5 -4 -4 -3 -3 -4 -8 -14 -17
-1 -2 -3 -2 -2 -3 -3 -3 -4 -4 -4 -4 -3 -4 -4 -4 -3 -2 -3 -3 -3 -4 -4 -4 -4 -5 -5 -6 -6 -6 -6 -6 -6 -6 -7 -7 -6 -6 -6 -6 -5 -4 -4 -6 -6 -5 -4 -4 -4 -3 -6 -13 -16 -10
-2 -2 -2 -3 -3 -4 -4 -4 -4 -5 -4 -4 -4 -4 -5 -4 -4 -4 -3 -5 -5 -6 -6 -6 -6 -6 -6 -5 -6 -8 -9 -8 -7 -8 -8 -6 -6 -6 -6 -6 -5 -5 -4 -5 -5 -5 -4 -2 -2 -2 -8 -15 -9 -14
-3 -3 -3 -3 -5 -6 -6 -5 -5 -5 -4 -4 -5 -6 -6 -4 -3 -3 -4 -6 -6 -7 -7 -7 -7 -7 -6 -7 -8 -8 -9 -7 -7 -7 -7 -6 -5 -5 -5 -5 -5 -5 -4 -4 -5 -4 -4 -2 -2 -5 -8 -4 -9 -15
-4 -4 -4 -4 -6 -7 -7 -6 -6 -6 -6 -5 -5 -5 -5 -4 -4 -5 -7 -7 -8 -9 -9 -9 -9 -8 -7 -8 -8 -9 -10 -8 -7 -6 -7 -5 -4 -4 -4 -4 -4 -5 -5 -5 -4 -4 -4 -2 -3 -4 -4 -10 -14 -11
-4 -4 -4 -5 -7 -8 -7 -7 -6 -6 -5 -4 -6 -6 -6 -5 -5 -7 -7 -9 -10 -14 -13 -13 -11 -11 -11 -11 -10 -9 -8 -7 -6 -7 -7 -6 -5 -4 -4 -3 -3 -4 -5 -5 -5 -4 -2 -3 -4 -4 -8 -14 -10 -5
-5 -5 -6 -7 -7 -8 -7 -6 -7 -5 -5 -6 -6 -6 -5 -5 -6 -8 -12 -15 -14 -14 -13 -13 -12 -10 -9 -9 -8 -8 -9 -9 -8 -7 -7 -7 -6 -4 -4 -3 -2 -4 -5 -5 -3 -1 -2 -3 -4 -6 -14 -9 -5 -10
-5 -6 -7 -7 -8 -8 -8 -7 -6 -7 -7 -6 -5 -6 -8 -8 -9 -12 -13 -13 -12 -12 -12 -11 -11 -10 -10 -10 -10 -9 -9 -9 -8 -7 -7 -7 -5 -4 -4 -4 -3 -3 -5 -5 -3 -3 -4 -4 -9 -13 -7 -6 -12 -17
-6 -6 -7 -7 -6 -6 -7 -8 -7 -7 -7 -5 -7 -9 -9 -11 -13 -13 -12 -12 -12 -12 -12 -11 -10 -10 -10 -9 -9 -9 -9 -9 -9 -8 -7 -6 -5 -4 -4 -4 -4 -4 -4 -4 -4 -5 -6 -8 -8 -7 -8 -15 -17 -18
-6 -7 -7 -7 -6 -8 -7 -7 -8 -8 -8 -8 -8 -8 -9 -10 -11 -11 -10 -10 -10 -10 -10 -9 -9 -9 -9 -9 -9 -9 -9 -9 -8 -7 -6 -6 -5 -4 -4 -4 -5 -5 -5 -5 -5 -5 -6 -6 -6 -7 -14 -17 -17 -17
-6 -7 -7 -6 -9 -8 -7 -7 -7 -7 -7 -7 -8 -8 -8 -8 -8 -9 -9 -9 -9 -9 -9 -9 -9 -9 -9 -9 -9 -9 -9 -8 -7 -7 -6 -5 -5 -4 -5 -5 -6 -6 -6 -6 -5 -6 -6 -6 -10 -16 -18 -17 -17 -17
-9 -10 -10 -11 -12 -12 -8 -8 -9 -11 -9 -11 -9 -8 -8 -8 -9 -8 -8 -9 -9 -9 -9 -9 -9 -9 -9 -9 -9 -8 -8 -7 -7 -6 -6 -5 -5 -5 -5 -6 -6 -6 -6 -6 -6 -6 -7 -14 -17 -17 -17 -17 -16 -16